TimeEST,TemperatureF,Dew PointF,Humidity,Sea Level PressureIn,VisibilityMPH,Wind Direction,Wind SpeedMPH,Gust SpeedMPH,PrecipitationIn,Events,Conditions,WindDirDegrees,DateUTC
12:15 AM,66.2,59.0,78,29.81,10.0,SE,12.7,19.6,N/A,,Unknown,130,2011-11-29 05:15:00
12:35 AM,66.2,59.0,78,29.80,10.0,SE,13.8,29.9,N/A,,Unknown,140,2011-11-29 05:35:00
12:55 AM,66.2,59.0,78,29.79,10.0,SE,13.8,24.2,N/A,,Unknown,140,2011-11-29 05:55:00
1:15 AM,66.2,59.0,78,29.77,10.0,SE,15.0,26.5,N/A,,Unknown,140,2011-11-29 06:15:00
1:35 AM,66.2,60.8,83,29.76,10.0,SE,16.1,27.6,0.01,,Unknown,140,2011-11-29 06:35:00
1:55 AM,64.4,60.8,88,29.75,10.0,SE,10.4,26.5,0.02,,Unknown,130,2011-11-29 06:55:00
2:15 AM,64.4,60.8,88,29.74,10.0,SE,12.7,21.9,N/A,,Unknown,140,2011-11-29 07:15:00
2:35 AM,59.0,55.4,88,29.79,1.5,WSW,21.9,39.1,0.10,,Unknown,240,2011-11-29 07:35:00
2:55 AM,55.4,51.8,88,29.78,5.0,WSW,10.4,21.9,0.17,,Unknown,250,2011-11-29 07:55:00
3:15 AM,53.6,51.8,94,29.81,1.8,SW,13.8,-,0.10,,Unknown,230,2011-11-29 08:15:00
3:35 AM,53.6,51.8,94,29.81,4.0,WSW,12.7,23.0,0.23,,Unknown,240,2011-11-29 08:35:00
3:55 AM,51.8,50.0,94,29.82,2.5,WSW,11.5,16.1,0.34,,Unknown,240,2011-11-29 08:55:00
4:15 AM,51.8,50.0,94,29.81,2.5,SW,6.9,-,0.06,,Unknown,220,2011-11-29 09:15:00
4:35 AM,50.0,48.2,94,29.82,7.0,SW,9.2,-,0.14,,Unknown,230,2011-11-29 09:35:00
4:55 AM,50.0,48.2,94,29.81,5.0,WSW,5.8,-,N/A,,Unknown,240,2011-11-29 09:55:00
5:15 AM,50.0,48.2,94,29.80,7.0,Calm,Calm,-,0.01,,Unknown,0,2011-11-29 10:15:00
5:35 AM,50.0,48.2,94,29.81,7.0,Calm,Calm,-,0.01,,Unknown,0,2011-11-29 10:35:00
5:55 AM,50.0,48.2,94,29.81,5.0,Calm,Calm,-,0.01,,Unknown,0,2011-11-29 10:55:00
6:15 AM,50.0,48.2,94,29.82,4.0,South,6.9,-,N/A,,Unknown,190,2011-11-29 11:15:00
6:35 AM,50.0,48.2,94,29.82,7.0,SSW,5.8,-,N/A,,Unknown,200,2011-11-29 11:35:00
6:55 AM,50.0,48.2,94,29.84,10.0,SSW,8.1,-,0.03,,Unknown,200,2011-11-29 11:55:00
7:15 AM,48.2,46.4,93,29.83,10.0,SSW,11.5,-,N/A,,Unknown,210,2011-11-29 12:15:00
7:35 AM,48.2,46.4,93,29.84,10.0,South,8.1,-,0.01,,Unknown,190,2011-11-29 12:35:00
7:55 AM,48.2,46.4,93,29.85,10.0,SSW,6.9,-,0.02,,Unknown,210,2011-11-29 12:55:00
8:15 AM,48.2,46.4,93,29.86,10.0,SW,6.9,-,N/A,,Unknown,220,2011-11-29 13:15:00
8:35 AM,48.2,46.4,93,29.85,10.0,SW,9.2,-,N/A,,Unknown,220,2011-11-29 13:35:00
8:55 AM,48.2,46.4,93,29.85,10.0,SSW,6.9,-,N/A,,Unknown,200,2011-11-29 13:55:00
9:15 AM,48.2,46.4,93,29.86,10.0,SW,10.4,-,N/A,,Unknown,220,2011-11-29 14:15:00
9:35 AM,48.2,44.6,87,29.86,10.0,WSW,5.8,-,N/A,,Unknown,240,2011-11-29 14:35:00
9:55 AM,51.8,46.4,82,29.85,10.0,WSW,6.9,-,N/A,,Unknown,240,2011-11-29 14:55:00
10:15 AM,51.8,44.6,76,29.86,10.0,SW,10.4,16.1,N/A,,Unknown,220,2011-11-29 15:15:00
10:35 AM,51.8,42.8,71,29.85,10.0,SW,10.4,16.1,N/A,,Unknown,220,2011-11-29 15:35:00
10:55 AM,50.0,39.2,66,29.85,10.0,WSW,10.4,-,N/A,,Unknown,240,2011-11-29 15:55:00
11:15 AM,53.6,39.2,58,29.84,10.0,SSW,13.8,-,N/A,,Unknown,210,2011-11-29 16:15:00
11:35 AM,53.6,37.4,54,29.84,10.0,SW,12.7,18.4,N/A,,Unknown,220,2011-11-29 16:35:00
11:55 AM,51.8,37.4,58,29.83,10.0,SW,10.4,-,N/A,,Unknown,220,2011-11-29 16:55:00
12:15 PM,51.8,35.6,54,29.82,10.0,SW,9.2,16.1,N/A,,Unknown,220,2011-11-29 17:15:00
12:35 PM,51.8,35.6,54,29.81,10.0,WSW,9.2,-,N/A,,Unknown,250,2011-11-29 17:35:00
12:55 PM,53.6,35.6,51,29.80,10.0,SW,9.2,-,N/A,,Unknown,230,2011-11-29 17:55:00
1:15 PM,53.6,32.0,44,29.79,10.0,SW,11.5,18.4,N/A,,Unknown,220,2011-11-29 18:15:00
1:35 PM,53.6,33.8,47,29.78,10.0,WSW,11.5,-,N/A,,Unknown,240,2011-11-29 18:35:00
1:55 PM,53.6,33.8,47,29.77,10.0,SSW,10.4,-,N/A,,Unknown,210,2011-11-29 18:55:00
2:15 PM,53.6,33.8,47,29.77,10.0,SW,12.7,17.3,N/A,,Unknown,230,2011-11-29 19:15:00
2:35 PM,51.8,33.8,50,29.77,10.0,SW,11.5,-,N/A,,Unknown,230,2011-11-29 19:35:00
2:55 PM,51.8,33.8,50,29.77,10.0,SW,12.7,-,N/A,,Unknown,230,2011-11-29 19:55:00
3:15 PM,51.8,33.8,50,29.77,10.0,SW,10.4,16.1,N/A,,Unknown,220,2011-11-29 20:15:00
3:35 PM,51.8,33.8,50,29.78,10.0,SW,8.1,-,N/A,,Unknown,220,2011-11-29 20:35:00
3:55 PM,50.0,33.8,54,29.77,10.0,South,6.9,-,N/A,,Unknown,180,2011-11-29 20:55:00
4:15 PM,50.0,33.8,54,29.77,10.0,SSW,9.2,-,N/A,,Unknown,200,2011-11-29 21:15:00
4:35 PM,50.0,33.8,54,29.78,10.0,SW,6.9,-,N/A,,Unknown,220,2011-11-29 21:35:00
4:55 PM,48.2,35.6,62,29.78,10.0,SW,4.6,-,N/A,,Unknown,220,2011-11-29 21:55:00
5:15 PM,48.2,35.6,62,29.77,10.0,SW,6.9,-,N/A,,Unknown,220,2011-11-29 22:15:00
5:35 PM,48.2,35.6,62,29.78,10.0,SW,6.9,-,N/A,,Unknown,220,2011-11-29 22:35:00
5:55 PM,46.4,39.2,76,29.79,10.0,SW,9.2,-,N/A,,Unknown,230,2011-11-29 22:55:00
6:15 PM,46.4,41.0,81,29.80,10.0,WSW,4.6,-,N/A,,Unknown,240,2011-11-29 23:15:00
6:35 PM,46.4,39.2,76,29.80,10.0,WSW,12.7,-,N/A,,Unknown,240,2011-11-29 23:35:00
6:55 PM,44.6,37.4,76,29.81,10.0,WSW,10.4,17.3,N/A,,Unknown,240,2011-11-29 23:55:00
7:15 PM,44.6,37.4,76,29.82,10.0,SW,11.5,16.1,N/A,,Unknown,230,2011-11-30 00:15:00
7:35 PM,44.6,37.4,76,29.83,10.0,WSW,9.2,16.1,N/A,,Unknown,240,2011-11-30 00:35:00
7:55 PM,44.6,35.6,71,29.83,10.0,WSW,11.5,18.4,N/A,,Unknown,250,2011-11-30 00:55:00
8:15 PM,44.6,35.6,71,29.84,10.0,WSW,9.2,-,N/A,,Unknown,250,2011-11-30 01:15:00
8:35 PM,44.6,33.8,66,29.83,10.0,WSW,11.5,25.3,N/A,,Unknown,240,2011-11-30 01:35:00
8:55 PM,44.6,33.8,66,29.84,10.0,WSW,8.1,17.3,N/A,,Unknown,250,2011-11-30 01:55:00
9:15 PM,42.8,33.8,70,29.84,10.0,WSW,5.8,-,N/A,,Unknown,250,2011-11-30 02:15:00
9:35 PM,42.8,33.8,70,29.85,10.0,WSW,10.4,20.7,N/A,,Unknown,240,2011-11-30 02:35:00
9:55 PM,42.8,33.8,70,29.85,10.0,WSW,4.6,16.1,N/A,,Unknown,250,2011-11-30 02:55:00
10:15 PM,42.8,33.8,70,29.84,10.0,WSW,5.8,-,N/A,,Unknown,240,2011-11-30 03:15:00
10:35 PM,42.8,33.8,70,29.84,10.0,WSW,6.9,-,N/A,,Unknown,240,2011-11-30 03:35:00
10:55 PM,41.0,33.8,76,29.83,10.0,SW,5.8,-,N/A,,Unknown,230,2011-11-30 03:55:00
11:15 PM,41.0,35.6,81,29.83,10.0,SW,4.6,-,N/A,,Unknown,220,2011-11-30 04:15:00
11:35 PM,42.8,35.6,76,29.83,10.0,SSW,5.8,-,N/A,,Unknown,210,2011-11-30 04:35:00
11:55 PM,42.8,35.6,76,29.82,10.0,SSW,8.1,-,N/A,,Unknown,210,2011-11-30 04:55:00